{"data":{"norad_id":60237,"epoch":"2026-05-25T02:56:21.310368Z","epoch_age_seconds":60374,"freshness":"FRESH","line1":"1 60237U 24128C   26145.12246887  .00004206  00000+0  29231-3 0  9992","line2":"2 60237  61.9903 297.1771 0043861 129.8908 230.6054 15.06422482102794","mean_motion":15.06422482,"eccentricity":0.0043861,"inclination_deg":61.9903,"raan_deg":297.1771,"arg_perigee_deg":129.8908,"mean_anomaly_deg":230.6054,"bstar":0.00029231,"rev_number":10279,"period_min":95.590713575131,"perigee_km":516.76768560973,"apogee_km":577.51762379672,"semimajor_km":6925.2796547032,"source":"CELESTRAK","updated_at":"2026-05-25T13:38:25.535403Z"}}